Pincher Creek Airport
CZPC : now visible

Airfield :











YOU CAN JOIN US ON...

 
LOGIN :

Register | Disclaimer

   EN    FR    IT 

 









Legend :    VFR   Marginal VFR   IFR   Intensive IFR   Very Intensive IFR
Visi :
Ceiling :
>= 8 km
>= 3000ft
5 to 8 km
1000 to 3000 ft
1500m to 5 km
500 to 1000 ft
800 to 1500m
200 to 500 ft
< 800m
< 200 ft
Symbols :   Thunderstorms  Fog  Heavy snow  Heavy precipitations  Wind > 20 kt






- Airport Elevation : 3903 ft


CZPC - Pincher Creek

CURRENT METAR :
  • 270306Z AUTO 26004KT 6SM BR CLR M15/M16 A2969 RMK SLP145

EXPIRED METARs :
  • 270258Z AUTO 26004KT 5SM BR CLR M15/M17 A2969 RMK SLP146
  • 270200Z AUTO 32003KT 250V050 9SM CLR M14/M15 A2969 RMK SLP144
  • 270100Z AUTO 09006KT 9SM CLR M12/M14 A2968 RMK SLP136

TAF N/A
CZEG FIR / North America



MET'MAP, your aeronautical weather chart ! - Copyright ORBIFLY December 2007 - Disclaimer

ORBIFLY MET'MAP TEAM :

Programming & Development : Alexandra Zaïnal
Concept & original design : Baudouin d'Aumeries
Assistance for programming : Marc-Olivier Méhu
Technical & hardware support : Manuel Goepfert

Contact : metmap@orbifly.com




SOURCES & CREDITS :

   NOAA       Earth
Advisory